This demonstration page uses our WeatherBlox Daily Observations layout. Learn more.

Left ArrowRight Arrow

41.12389, -100.76542

Hourly Observations for January 27, 2019

Temp ( °F °C ) Dew Point ( °F °C ) Humidity (%) Winds ( mph kmh ) Pressure ( in mb ) Visibility ( mi km ) Precip ( " mm )
12:53 am 00:53 Mostly Cloudy 32 0 29 -1.7 88 88 W 3 6 30.08 1019 10 16 0.00 0.00
1:53 am 01:53 Mostly Cloudy 32 0 29 -1.7 88 88 WNW 6 9 30.06 1018 10 16 0.00 0.00
2:53 am 02:53 Cloudy 33 0.6 29 -1.7 85 85 NW 5 7 30.04 1017 10 16 0.00 0.00
3:53 am 03:53 Cloudy 35 1.7 30 -1.1 82 82 WNW 7 11 30.01 1016 10 16 0.00 0.00
4:53 am 04:53 Cloudy 37 2.8 29 -1.7 73 73 WNW 10 17 29.99 1016 10 16 0.00 0.03
5:53 am 05:53 Cloudy 38 3.3 28 -2.2 68 68 WNW 10 17 29.97 1015 10 16 0.00 0.00
6:53 am 06:53 Cloudy 39 3.9 27 -2.8 62 62 WNW 9 15 29.95 1014 10 16 0.00 0.00
7:53 am 07:53 Cloudy 41 5 27 -2.8 57 57 WNW 14 22 29.94 1014 10 16 0.00 0.00
8:53 am 08:53 Cloudy 42 5.6 27 -2.8 55 55 NW 14 22 29.93 1014 10 16 0.00 0.00
9:53 am 09:53 Cloudy 45 7.2 28 -2.2 52 52 WNW 14 22 29.91 1013 10 16 0.00 0.00
10:53 am 10:53 Cloudy 49 9.4 28 -2.2 44 44 WNW 16 26 29.88 1012 10 16 0.00 0.00
11:53 am 11:53 Cloudy 52 11.1 27 -2.8 38 38 WNW 13 20 29.83 1010 10 16 0.00 0.00
12:53 pm 12:53 Sunny 57 13.9 28 -2.2 33 33 W 18 30 29.75 1008 10 16 0.00 0.00
1:53 pm 13:53 Sunny 57 13.9 28 -2.2 33 33 W 15 24 29.69 1006 10 16 0.00 0.00
2:53 pm 14:53 Sunny 60 15.6 28 -2.2 30 30 W 17 28 29.64 1004 10 16 0.00 0.00
3:53 pm 15:53 Mostly Cloudy 59 15 26 -3.3 28 28 WNW 18 30 29.61 1003 10 16 0.00 0.00
4:53 pm 16:53 Mostly Cloudy 55 12.8 26 -3.3 33 33 WNW 13 20 29.58 1002 10 16 0.00 0.00
5:53 pm 17:53 Mostly Cloudy 53 11.7 29 -1.7 40 40 WNW 16 26 29.58 1002 10 16 0.00 0.00
6:53 pm 18:53 Mostly Clear 50 10 29 -1.7 44 44 WNW 10 17 29.59 1002 10 16 0.00 0.00
7:53 pm 19:53 Mostly Clear 50 10 29 -1.7 44 44 NW 14 22 29.61 1003 10 16 0.00 0.00
8:53 pm 20:53 Partly Cloudy 50 10 32 0 50 50 N 22 35 29.65 1004 10 16 0.00 0.00
9:53 pm 21:53 Mostly Cloudy 45 7.2 33 0.6 63 63 N 15 24 29.69 1006 10 16 0.00 0.00
10:53 pm 22:53 Cloudy 42 5.6 29 -1.7 60 60 N 21 33 29.73 1007 10 16 0.00 0.00
11:53 pm 23:53 Cloudy 41 5 28 -2.2 60 60 N 20 31 29.75 1008 10 16 0.00 0.00

Powered by AerisWeather